Location: Antoign�
(47.0844°N, 0.1131°W)
Time: 02:40:50
(UTC+00:00)

Cosmos 2366 rocket - Pass Details

Date: 03 March 2021
Orbit: 954 x 998 km, 82.9° (Epoch: 16 April)

Event Time Altitude Azimuth Distance (km) Brightness Sun altitude
Rises 20:05:34 0° 191° (S) 3,680 7.0 -23.8°
Reaches altitude 10° 20:08:04 10° 192° (SSW) 2,741 6.3 -24.2°
Maximum altitude 20:14:23 79° 279° (W) 1,019 4.1 -25.2°
Drops below altitude 10° 20:20:47 10° 7° (N) 2,777 6.5 -26.3°
Sets 20:23:20 0° 9° (N) 3,731 7.2 -26.7°
